Kayseri, Turkey

3:23 AM +03 on December 05, 2016 (GMT +0300)
Erkilet Air Base

Weather History for LTAU - November, 2012

Change the Weather History Date:

Friday, November 16, 2012

  Actual Average Record
Temperature  
Mean Temperature 46 °F -  
Max Temperature 62 °F 54 °F 69 °F (2010)
Min Temperature 30 °F 29 °F 21 °F (2000)
Degree Days  
Heating Degree Days 19    
Moisture  
Dew Point 36 °F    
Average Humidity 82    
Maximum Humidity 100    
Minimum Humidity 32    
Precipitation  
Precipitation 0.00 in - - ()
Sea Level Pressure  
Sea Level Pressure 30.24 in    
Wind  
Wind Speed 1 mph ()    
Max Wind Speed 5 mph    
Max Gust Speed -    
Visibility 1.7 miles    
Events Fog    
Averages and records for this station are not official NWS values.
T = Trace of Precipitation, MM = Missing Value Source: Averaged Metar Reports

Daily Weather History Graph

Daily Weather History Graph

Search for Another Location

Airport or City:

Trip Planner

Search our weather history database for the weather conditions in past years. The results will help you decide how hot, cold, wet, or windy it might be!

Date:

Astronomy

Nov. 16, 2012 Rise Set
Actual Time 6:21 AM EET 4:23 PM EET
Civil Twilight 5:53 AM EET 4:52 PM EET
Nautical Twilight 5:20 AM EET 5:24 PM EET
Astronomical Twilight 4:49 AM EET 5:55 PM EET
Moon 8:56 AM EET (11/16) 6:59 PM EET (11/16)
Length of Visible Light 10h 58m
Length of Day
10h 01m
Waxing Crescent, 9% of the Moon is Illuminated
Nov 16
Waxing Crescent
Nov 20
First Quarter
Nov 28
Full
Dec 6
Last Quarter
Dec 13
New

Hourly Weather History & Observations

Time (EET) Temp. Windchill Dew Point Humidity Pressure Visibility Wind Dir Wind Speed Gust Speed Precip Events Conditions
12:20 AM 33.8 °F 30.8 °F 33.8 °F 100% 30.24 in 0.6 mi NE 3.5 mph - N/A Fog Patches of Fog
12:50 AM 33.8 °F - 32.0 °F 93% 30.24 in 0.4 mi ENE 1.2 mph - N/A Fog Patches of Fog
1:20 AM 32.0 °F - 32.0 °F 100% 30.24 in 0.4 mi Calm Calm - N/A Fog Fog
1:50 AM 32.0 °F - 30.2 °F 93% 30.24 in 2.5 mi Calm Calm - N/A   Mist
2:00 AM 32 °F - 31 °F 93%  in 2 mi Calm Calm - - Fog Light Fog
2:20 AM 30.2 °F - 30.2 °F 100% 30.24 in 0.2 mi Calm Calm - N/A Fog Patches of Fog
2:50 AM 32.0 °F - 30.2 °F 93% 30.24 in 0.3 mi Calm Calm - N/A Fog Patches of Fog
3:20 AM 32.0 °F - 32.0 °F 100% 30.24 in 0.3 mi Calm Calm - N/A Fog Patches of Fog
3:50 AM 30.2 °F - 30.2 °F 100% 30.24 in 0.2 mi Calm Calm - N/A Fog Light Freezing Fog
4:20 AM 30.2 °F - 30.2 °F 100% 30.24 in 0.2 mi Calm Calm - N/A Fog Light Freezing Fog
4:50 AM 30.2 °F - 30.2 °F 100% 30.24 in 0.2 mi Calm Calm - N/A Fog Light Freezing Fog
5:20 AM 30.2 °F - 30.2 °F 100% 30.24 in 0.2 mi Calm Calm - N/A Fog Light Freezing Fog
5:50 AM 30.2 °F - 30.2 °F 100% 30.24 in 0.2 mi Calm Calm - N/A Fog Light Freezing Fog
6:20 AM 30.2 °F - 30.2 °F 100% 30.24 in 0.2 mi Calm Calm - N/A Fog Light Freezing Fog
6:50 AM 32.0 °F - 30.2 °F 93% 30.24 in 0.2 mi Calm Calm - N/A Fog Light Freezing Fog
7:20 AM 32.0 °F - 30.2 °F 93% 30.27 in 0.2 mi Calm Calm - N/A Fog Light Freezing Fog
7:50 AM 32.0 °F - 30.2 °F 93% 30.27 in 0.2 mi Calm Calm - N/A Fog Light Freezing Fog
8:00 AM 32 °F - 31 °F 93%  in 0 mi Calm Calm - - Fog Fog
8:20 AM 35.6 °F - 33.8 °F 93% 30.27 in 0.1 mi Calm Calm - N/A Fog Light Freezing Fog
8:50 AM 37.4 °F - 35.6 °F 93% 30.27 in 0.3 mi Calm Calm - N/A Fog Fog
9:20 AM 41.0 °F - 41.0 °F 100% 30.27 in 1.1 mi Calm Calm - N/A Fog Patches of Fog
9:50 AM 42.8 °F - 42.8 °F 100% 30.27 in 3.7 mi Calm Calm - N/A   Unknown
10:20 AM 48.2 °F - 42.8 °F 82% 30.24 in - Calm Calm - N/A   Clear
10:50 AM 51.8 °F - 42.8 °F 71% 30.24 in - Calm Calm - N/A   Clear
11:20 AM 55.4 °F - 42.8 °F 63% 30.24 in - Calm Calm - N/A   Clear
11:50 AM 55.4 °F - 41.0 °F 58% 30.24 in - Variable 1.2 mph - N/A   Clear
12:20 PM 57.2 °F - 39.2 °F 51% 30.24 in - Variable 1.2 mph - N/A   Clear
12:50 PM 57.2 °F - 39.2 °F 51% 30.21 in - Variable 1.2 mph - N/A   Clear
1:20 PM 59.0 °F - 39.2 °F 48% 30.21 in - Variable 1.2 mph - N/A   Clear
1:50 PM 60.8 °F - 37.4 °F 42% 30.21 in - Calm Calm - N/A   Clear
2:00 PM 60 °F - 38 °F 32%  in 12 mi Calm Calm - -   Partly Cloudy
2:20 PM 60.8 °F - 39.2 °F 45% 30.21 in - Calm Calm - N/A   Clear
2:50 PM 60.8 °F - 39.2 °F 45% 30.21 in - Calm Calm - N/A   Clear
3:20 PM 60.8 °F - 39.2 °F 45% 30.21 in - Calm Calm - N/A   Clear
3:50 PM 59.0 °F - 41.0 °F 51% 30.21 in - Calm Calm - N/A   Clear
4:20 PM 53.6 °F - 41.0 °F 62% 30.21 in - Calm Calm - N/A   Clear
4:50 PM 50.0 °F - 41.0 °F 71% 30.21 in - Calm Calm - N/A   Clear
5:20 PM 48.2 °F - 41.0 °F 76% 30.21 in - Calm Calm - N/A   Clear
5:50 PM 46.4 °F - 39.2 °F 76% 30.21 in 2.5 mi Calm Calm - N/A   Mist
6:20 PM 44.6 °F - 41.0 °F 87% 30.24 in 2.5 mi Calm Calm - N/A   Mist
6:50 PM 44.6 °F - 41.0 °F 87% 30.24 in 1.8 mi Calm Calm - N/A   Mist
7:20 PM 42.8 °F - 39.2 °F 87% 30.24 in 1.8 mi Calm Calm - N/A   Mist
7:50 PM 41.0 °F - 39.2 °F 93% 30.24 in 1.8 mi Calm Calm - N/A   Mist
8:00 PM 41 °F - 39 °F 88%  in 2 mi Calm Calm - -   Mist
8:20 PM 41.0 °F - 39.2 °F 93% 30.24 in 1.7 mi NE 2.3 mph - N/A   Mist
8:50 PM 41.0 °F - 39.2 °F 93% 30.24 in 2.5 mi North 2.3 mph - N/A   Mist
9:20 PM 39.2 °F 37.0 °F 37.4 °F 93% 30.24 in 3.7 mi NE 3.5 mph - N/A   Unknown
9:50 PM 39.2 °F 37.0 °F 37.4 °F 93% 30.24 in 3.1 mi NE 3.5 mph - N/A   Mist
10:20 PM 39.2 °F 35.9 °F 35.6 °F 87% 30.24 in 3.7 mi NNE 4.6 mph - N/A   Unknown
10:50 PM 37.4 °F - 35.6 °F 93% 30.24 in 3.7 mi Calm Calm - N/A   Unknown
11:20 PM 37.4 °F - 35.6 °F 93% 30.24 in 3.7 mi NE 1.2 mph - N/A   Unknown
11:50 PM 35.6 °F 31.7 °F 33.8 °F 93% 30.21 in 3.7 mi NNE 4.6 mph - N/A   Unknown